When you browse on this site, cookies collect data to enhance your experience and personalize the content and advertising you see.
Visit our Privacy Policy to learn more. By continuing to use the site, you agree to this use of cookies and data.
  • In Spain
  • List of Countries
  • For 7 days
  • Water Temperature
  • Weather Map
  • Weather Widgets
  • user-avatar
    Login

    Hourly Weather Berezhany

    Today, 5 June, Friday

    Time Temperature Precipitation Wind Pressure Humidity
    00:00 +12°C° 0.1 mm 3 mps 724 mmHg 92%
    01:00 +12°C° 0.1 mm 3 mps 724 mmHg 93%
    02:00 +12°C° 0 mm 3 mps 724 mmHg 93%
    03:00 +12°C° 0.1 mm 4 mps 724 mmHg 93%
    04:00 +13°C° 0.1 mm 4 mps 724 mmHg 93%
    05:00 +13°C° 0.1 mm 4 mps 724 mmHg 93%
    06:00 +14°C° 0.1 mm 4 mps 724 mmHg 93%
    07:00 +14°C° 0.1 mm 4 mps 725 mmHg 92%
    08:00 +14°C° 0 mm 4 mps 725 mmHg 92%
    09:00 +15°C° 0 mm 4 mps 725 mmHg 90%
    10:00 +17°C° 0 mm 4 mps 725 mmHg 87%
    11:00 +18°C° 0 mm 4 mps 725 mmHg 85%
    12:00 +20°C° 0.1 mm 5 mps 726 mmHg 79%
    13:00 +21°C° 0.1 mm 5 mps 726 mmHg 74%
    14:00 +23°C° 0.1 mm 6 mps 726 mmHg 68%
    15:00 +23°C° 0.3 mm 5 mps 726 mmHg 71%
    16:00 +23°C° 0.3 mm 5 mps 726 mmHg 73%
    17:00 +23°C° 0.3 mm 4 mps 726 mmHg 76%
    18:00 +21°C° 0.1 mm 4 mps 726 mmHg 78%
    19:00 +20°C° 0.1 mm 3 mps 726 mmHg 80%
    20:00 +18°C° 0.1 mm 3 mps 726 mmHg 81%
    21:00 +18°C° 0 mm 3 mps 726 mmHg 80%
    22:00 +17°C° 0 mm 4 mps 727 mmHg 79%
    23:00 +17°C° 0 mm 4 mps 727 mmHg 77%

    Tomorrow, 6 June, Saturday

    Time Temperature Precipitation Wind Pressure Humidity
    00:00 +17°C° 0 mm 4 mps 727 mmHg 77%
    01:00 +17°C° 0 mm 4 mps 727 mmHg 77%
    02:00 +17°C° 0 mm 4 mps 727 mmHg 76%
    03:00 +17°C° 0 mm 4 mps 728 mmHg 79%
    04:00 +15°C° 0 mm 4 mps 728 mmHg 81%
    05:00 +15°C° 0 mm 4 mps 729 mmHg 84%
    06:00 +17°C° 0 mm 3 mps 729 mmHg 84%
    07:00 +18°C° 0 mm 3 mps 730 mmHg 85%
    08:00 +19°C° 0 mm 3 mps 731 mmHg 85%
    09:00 +19°C° 0.4 mm 3 mps 731 mmHg 82%
    10:00 +20°C° 0.4 mm 3 mps 732 mmHg 79%
    11:00 +20°C° 0.4 mm 2 mps 732 mmHg 76%
    12:00 +21°C° 0.1 mm 2 mps 732 mmHg 72%
    13:00 +23°C° 0.1 mm 1 mps 732 mmHg 68%
    14:00 +24°C° 0.1 mm 1 mps 732 mmHg 63%
    15:00 +24°C° 0.1 mm 1 mps 732 mmHg 66%
    16:00 +24°C° 0.1 mm 2 mps 732 mmHg 69%
    17:00 +24°C° 0.1 mm 2 mps 732 mmHg 71%
    18:00 +21°C° 0.1 mm 3 mps 732 mmHg 77%
    19:00 +20°C° 0.1 mm 3 mps 731 mmHg 83%
    20:00 +19°C° 0.1 mm 3 mps 731 mmHg 88%
    21:00 +18°C° 0.3 mm 3 mps 731 mmHg 90%
    22:00 +18°C° 0.3 mm 4 mps 731 mmHg 91%
    23:00 +17°C° 0.3 mm 4 mps 731 mmHg 92%

    Day after tomorrow, 7 June, Sunday

    Time Temperature Precipitation Wind Pressure Humidity
    00:00 +17°C° 0.3 mm 4 mps 731 mmHg 92%
    01:00 +17°C° 0.3 mm 5 mps 731 mmHg 91%
    02:00 +17°C° 0.3 mm 5 mps 731 mmHg 91%
    03:00 +16°C° 0 mm 5 mps 731 mmHg 91%
    04:00 +16°C° 0 mm 5 mps 731 mmHg 91%
    05:00 +15°C° 0 mm 5 mps 730 mmHg 91%
    06:00 +16°C° 0 mm 5 mps 731 mmHg 88%
    07:00 +17°C° 0 mm 6 mps 731 mmHg 84%
    08:00 +19°C° 0 mm 6 mps 731 mmHg 81%
    09:00 +20°C° 0 mm 6 mps 731 mmHg 79%
    10:00 +22°C° 0 mm 6 mps 731 mmHg 77%
    11:00 +23°C° 0 mm 6 mps 731 mmHg 75%
    12:00 +24°C° 0.1 mm 6 mps 731 mmHg 73%
    13:00 +26°C° 0.1 mm 6 mps 731 mmHg 72%
    14:00 +26°C° 0.1 mm 6 mps 731 mmHg 70%
    15:00 +26°C° 0.1 mm 6 mps 731 mmHg 72%
    16:00 +26°C° 0.1 mm 5 mps 731 mmHg 75%
    17:00 +26°C° 0.1 mm 5 mps 731 mmHg 77%
    18:00 +23°C° 0 mm 5 mps 731 mmHg 79%
    19:00 +22°C° 0 mm 4 mps 731 mmHg 82%
    20:00 +20°C° 0 mm 4 mps 731 mmHg 84%
    21:00 +19°C° 0 mm 4 mps 731 mmHg 84%
    22:00 +19°C° 0 mm 4 mps 731 mmHg 83%
    23:00 +18°C° 0 mm 4 mps 731 mmHg 83%

    8 June, Monday

    Time Temperature Precipitation Wind Pressure Humidity
    00:00 +18°C° 0.3 mm 3 mps 731 mmHg 85%
    01:00 +17°C° 0.3 mm 3 mps 732 mmHg 87%
    02:00 +17°C° 0.3 mm 3 mps 732 mmHg 89%
    03:00 +16°C° 0.1 mm 3 mps 731 mmHg 89%
    04:00 +16°C° 0.1 mm 3 mps 731 mmHg 88%
    05:00 +16°C° 0.1 mm 3 mps 731 mmHg 88%
    06:00 +17°C° 0 mm 3 mps 731 mmHg 86%
    07:00 +19°C° 0 mm 4 mps 731 mmHg 85%
    08:00 +20°C° 0 mm 4 mps 731 mmHg 83%
    09:00 +21°C° 0 mm 5 mps 731 mmHg 80%
    10:00 +23°C° 0 mm 5 mps 732 mmHg 77%
    11:00 +25°C° 0 mm 5 mps 732 mmHg 74%
    12:00 +25°C° 0 mm 5 mps 731 mmHg 72%
    13:00 +25°C° 0 mm 5 mps 731 mmHg 71%
    14:00 +26°C° 0 mm 6 mps 731 mmHg 70%
    15:00 +25°C° 0.5 mm 5 mps 731 mmHg 73%
    16:00 +25°C° 0.5 mm 5 mps 730 mmHg 76%
    17:00 +25°C° 0.5 mm 4 mps 730 mmHg 79%
    18:00 +23°C° 1 mm 4 mps 730 mmHg 81%
    19:00 +21°C° 1 mm 4 mps 730 mmHg 83%
    20:00 +20°C° 1 mm 3 mps 730 mmHg 85%
    21:00 +19°C° 0.1 mm 3 mps 730 mmHg 86%
    22:00 +18°C° 0.1 mm 2 mps 730 mmHg 87%
    23:00 +18°C° 0.1 mm 2 mps 731 mmHg 88%

    9 June, Tuesday

    Time Temperature Precipitation Wind Pressure Humidity
    00:00 +17°C° 0 mm 2 mps 731 mmHg 89%
    01:00 +17°C° 0 mm 2 mps 730 mmHg 90%
    02:00 +17°C° 0 mm 2 mps 730 mmHg 91%
    03:00 +18°C° 0 mm 1 mps 730 mmHg 92%
    04:00 +16°C° 0 mm 1 mps 731 mmHg 93%
    05:00 +16°C° 0 mm 1 mps 731 mmHg 94%
    06:00 +19°C° 0.1 mm 1 mps 731 mmHg 91%
    07:00 +20°C° 0.1 mm 1 mps 731 mmHg 89%
    08:00 +21°C° 0.1 mm 1 mps 732 mmHg 86%
    09:00 +22°C° 0.7 mm 1 mps 732 mmHg 83%
    10:00 +23°C° 0.7 mm 2 mps 732 mmHg 80%
    11:00 +24°C° 0.7 mm 2 mps 732 mmHg 76%
    12:00 +25°C° 1.2 mm 2 mps 732 mmHg 77%
    13:00 +25°C° 1.2 mm 2 mps 732 mmHg 77%
    14:00 +25°C° 1.2 mm 2 mps 732 mmHg 77%
    15:00 +25°C° 1 mm 2 mps 732 mmHg 77%
    16:00 +25°C° 1 mm 2 mps 732 mmHg 77%
    17:00 +25°C° 1 mm 1 mps 731 mmHg 77%
    18:00 +24°C° 1 mm 1 mps 731 mmHg 81%
    19:00 +23°C° 1 mm 2 mps 731 mmHg 85%
    20:00 +20°C° 1 mm 2 mps 731 mmHg 89%
    21:00 +21°C° 0.6 mm 1 mps 731 mmHg 90%
    22:00 +20°C° 0.6 mm 1 mps 732 mmHg 92%
    23:00 +19°C° 0.6 mm 1 mps 732 mmHg 93%

    10 June, Wednesday

    Time Temperature Precipitation Wind Pressure Humidity
    00:00 +19°C° 0 mm 1 mps 732 mmHg 94%
    01:00 +18°C° 0 mm 1 mps 731 mmHg 95%
    02:00 +18°C° 0 mm 1 mps 731 mmHg 95%
    03:00 +18°C° 0 mm 1 mps 731 mmHg 96%
    04:00 +17°C° 0 mm 2 mps 731 mmHg 97%
    05:00 +17°C° 0 mm 2 mps 731 mmHg 98%
    06:00 +19°C° 0 mm 1 mps 732 mmHg 96%
    07:00 +19°C° 0 mm 1 mps 732 mmHg 95%
    08:00 +20°C° 0 mm 1 mps 732 mmHg 93%
    09:00 +20°C° 0.1 mm 1 mps 732 mmHg 91%
    10:00 +20°C° 0.1 mm 2 mps 732 mmHg 89%
    11:00 +21°C° 0.1 mm 2 mps 732 mmHg 87%
    12:00 +21°C° 0.4 mm 2 mps 732 mmHg 85%
    13:00 +23°C° 0.4 mm 2 mps 732 mmHg 83%
    14:00 +24°C° 0.4 mm 2 mps 732 mmHg 80%
    15:00 +24°C° 0.2 mm 1 mps 732 mmHg 80%
    16:00 +24°C° 0.2 mm 1 mps 732 mmHg 79%
    17:00 +24°C° 0.2 mm 1 mps 732 mmHg 78%
    18:00 +23°C° 0.9 mm 1 mps 732 mmHg 82%
    19:00 +22°C° 0.9 mm 1 mps 732 mmHg 85%
    20:00 +21°C° 0.9 mm 1 mps 732 mmHg 89%
    21:00 +20°C° 0.1 mm 1 mps 732 mmHg 90%
    22:00 +19°C° 0.1 mm 1 mps 732 mmHg 91%
    23:00 +16°C° 0.1 mm 0 mps 732 mmHg 92%
    Show more